GSAT0220 (GALILEO 24)

Last updated on Jan. 15, 2021, 6:30 a.m. UTC

1 43567U 18060D   21013.82791455 -.00000074  00000-0  00000-0 0  9990
2 43567  56.9372  35.2978 0005630 276.0750  83.9088  1.70475888 15419
UTC
Height (km)
Latitude
Longitude
Inclination
Orbital Period
UTC large
Height (km)
Speed (km/s)
/
Latitude / Longitude
Inclination (degrees)
Orbital Period (minutes)
Azimuth
Elevation
Range (km)
Doppler Factor
iOS Compass Heading
iOS Angle

Next 30 passes for location: Hong Kong

Rise time Rise Azimuth (degrees) Set time Set Azimuth (degrees) Duration Max altitude (degrees)

No matching passes for this satellites